Time,TemperatureF,DewpointF,PressureIn,WindDirection,WindDirectionDegrees,WindSpeedMPH,WindSpeedGustMPH,Humidity,HourlyPrecipIn,Conditions,Clouds,dailyrainin,SoftwareType,DateUTC
2013-05-19 00:02:00,56.0,54.0,29.72,North,0,0.0,-999.0,94,-99.99,,,-99.99,,2013-05-19 06:02:00,
2013-05-19 00:12:00,56.0,54.0,29.68,North,0,0.0,-999.0,94,-99.99,,,-99.99,,2013-05-19 06:12:00,
2013-05-19 00:21:00,56.0,54.0,29.68,NNE,28,3.0,-999.0,93,-99.99,,,-99.99,,2013-05-19 06:21:00,
2013-05-19 00:32:00,55.0,54.0,29.69,East,92,7.0,-999.0,97,-99.99,,,-99.99,,2013-05-19 06:32:00,
2013-05-19 00:42:00,55.0,54.0,29.66,North,0,0.0,-999.0,97,-99.99,,,-99.99,,2013-05-19 06:42:00,
2013-05-19 00:52:00,56.0,54.0,29.64,NNW,332,4.0,-999.0,94,-99.99,,,-99.99,,2013-05-19 06:52:00,
2013-05-19 01:01:00,56.0,54.0,29.67,WSW,249,4.0,-999.0,94,-99.99,,,-99.99,,2013-05-19 07:01:00,
2013-05-19 01:11:00,55.0,54.0,29.65,WSW,258,5.0,-999.0,98,-99.99,,,-99.99,,2013-05-19 07:11:00,
2013-05-19 01:21:00,55.0,54.0,29.62,North,-999,0.0,-999.0,98,-99.99,,,-99.99,,2013-05-19 07:21:00,
2013-05-19 01:32:00,55.0,55.0,29.64,East,91,6.0,-999.0,98,-99.99,,,-99.99,,2013-05-19 07:32:00,
2013-05-19 01:42:00,55.0,54.0,29.64,South,177,7.0,-999.0,98,-99.99,,,-99.99,,2013-05-19 07:42:00,
2013-05-19 01:52:00,55.0,54.0,29.66,NW,326,2.0,-999.0,98,-99.99,,,-99.99,,2013-05-19 07:52:00,
2013-05-19 02:01:00,55.0,54.0,29.67,North,-999,4.0,-999.0,98,-99.99,,,-99.99,,2013-05-19 08:01:00,
2013-05-19 02:12:00,55.0,54.0,29.69,NNE,21,8.0,-999.0,98,-99.99,,,-99.99,,2013-05-19 08:12:00,
2013-05-19 02:22:00,54.0,53.0,29.70,ENE,58,3.0,-999.0,98,-99.99,,,-99.99,,2013-05-19 08:22:00,
2013-05-19 02:32:00,54.0,54.0,29.70,East,85,5.0,-999.0,98,-99.99,,,-99.99,,2013-05-19 08:32:00,
2013-05-19 02:42:00,54.0,53.0,29.69,East,93,3.0,-999.0,98,-99.99,,,-99.99,,2013-05-19 08:42:00,
2013-05-19 02:52:00,54.0,53.0,29.71,NE,34,2.0,-999.0,98,-99.99,,,-99.99,,2013-05-19 08:52:00,
2013-05-19 03:02:00,54.0,53.0,29.71,NE,41,0.0,-999.0,98,-99.99,,,-99.99,,2013-05-19 09:02:00,
2013-05-19 03:12:00,54.0,53.0,29.70,North,0,0.0,-999.0,98,-99.99,,,-99.99,,2013-05-19 09:12:00,
2013-05-19 03:21:00,54.0,53.0,29.71,NE,43,6.0,-999.0,98,-99.99,,,-99.99,,2013-05-19 09:21:00,
2013-05-19 03:32:00,54.0,53.0,29.71,NNE,19,5.0,-999.0,98,-99.99,,,-99.99,,2013-05-19 09:32:00,
2013-05-19 03:43:00,54.0,53.0,29.70,NNW,343,4.0,-999.0,98,-99.99,,,-99.99,,2013-05-19 09:43:00,
2013-05-19 03:53:00,54.0,54.0,29.70,NW,306,4.0,-999.0,98,-99.99,,,-99.99,,2013-05-19 09:53:00,
2013-05-19 04:02:00,54.0,53.0,29.71,NW,311,12.0,-999.0,98,-99.99,,,-99.99,,2013-05-19 10:02:00,
2013-05-19 04:12:00,54.0,53.0,29.69,NW,306,14.0,-999.0,98,-99.99,,,-99.99,,2013-05-19 10:12:00,
2013-05-19 04:23:00,54.0,53.0,29.71,WNW,298,5.0,-999.0,98,-99.99,,,-99.99,,2013-05-19 10:23:00,
2013-05-19 04:33:00,54.0,53.0,29.70,North,8,0.0,-999.0,98,-99.99,,,-99.99,,2013-05-19 10:33:00,
2013-05-19 04:42:00,54.0,54.0,29.69,North,0,0.0,-999.0,98,-99.99,,,-99.99,,2013-05-19 10:42:00,
2013-05-19 04:52:00,54.0,54.0,29.69,East,82,3.0,-999.0,98,-99.99,,,-99.99,,2013-05-19 10:52:00,
2013-05-19 05:02:00,54.0,53.0,29.71,North,0,0.0,-999.0,98,-99.99,,,-99.99,,2013-05-19 11:02:00,
2013-05-19 05:12:00,54.0,53.0,29.71,SSW,213,1.0,-999.0,98,-99.99,,,-99.99,,2013-05-19 11:12:00,
2013-05-19 05:21:00,54.0,54.0,29.69,SSW,202,2.0,-999.0,98,-99.99,,,-99.99,,2013-05-19 11:21:00,
2013-05-19 05:32:00,54.0,53.0,29.67,South,190,3.0,-999.0,98,-99.99,,,-99.99,,2013-05-19 11:32:00,
2013-05-19 05:42:00,54.0,53.0,29.68,SSW,205,6.0,-999.0,98,-99.99,,,-99.99,,2013-05-19 11:42:00,
2013-05-19 05:52:00,54.0,53.0,29.68,SW,235,3.0,-999.0,98,-99.99,,,-99.99,,2013-05-19 11:52:00,
2013-05-19 06:01:00,54.0,53.0,29.67,SW,232,5.0,-999.0,98,-99.99,,,-99.99,,2013-05-19 12:01:00,
2013-05-19 06:11:00,54.0,53.0,29.69,WSW,244,7.0,-999.0,98,-99.99,,,-99.99,,2013-05-19 12:11:00,
2013-05-19 06:22:00,54.0,53.0,29.67,WSW,237,9.0,-999.0,98,-99.99,,,-99.99,,2013-05-19 12:22:00,
2013-05-19 06:32:00,54.0,53.0,29.69,West,264,10.0,-999.0,98,-99.99,,,-99.99,,2013-05-19 12:32:00,
2013-05-19 06:42:00,54.0,53.0,29.67,West,265,9.0,-999.0,98,-99.99,,,-99.99,,2013-05-19 12:42:00,
2013-05-19 06:52:00,54.0,53.0,29.69,WSW,257,12.0,-999.0,98,-99.99,,,-99.99,,2013-05-19 12:52:00,
2013-05-19 07:01:00,54.0,53.0,29.68,WSW,257,13.0,-999.0,98,-99.99,,,-99.99,,2013-05-19 13:01:00,
2013-05-19 07:11:00,54.0,53.0,29.66,West,263,19.0,-999.0,98,-99.99,,,-99.99,,2013-05-19 13:11:00,
2013-05-19 07:21:00,54.0,53.0,29.68,WSW,258,14.0,-999.0,98,-99.99,,,-99.99,,2013-05-19 13:21:00,
2013-05-19 07:32:00,54.0,53.0,29.68,WSW,258,14.0,-999.0,98,-99.99,,,-99.99,,2013-05-19 13:32:00,
2013-05-19 07:42:00,54.0,54.0,29.67,West,268,15.0,-999.0,98,-99.99,,,-99.99,,2013-05-19 13:42:00,
2013-05-19 07:52:00,55.0,54.0,29.67,West,269,15.0,-999.0,98,-99.99,,,-99.99,,2013-05-19 13:52:00,
2013-05-19 08:02:00,55.0,54.0,29.67,WSW,257,19.0,-999.0,98,-99.99,,,-99.99,,2013-05-19 14:02:00,
2013-05-19 08:11:00,55.0,55.0,29.67,West,276,15.0,-999.0,98,-99.99,,,-99.99,,2013-05-19 14:11:00,
2013-05-19 08:21:00,55.0,55.0,29.66,WNW,294,17.0,-999.0,98,-99.99,,,-99.99,,2013-05-19 14:21:00,
2013-05-19 08:32:00,56.0,56.0,29.66,WNW,282,20.0,-999.0,98,-99.99,,,-99.99,,2013-05-19 14:32:00,
2013-05-19 08:42:00,56.0,55.0,29.67,WNW,298,19.0,-999.0,97,-99.99,,,-99.99,,2013-05-19 14:42:00,
2013-05-19 08:52:00,56.0,55.0,29.67,WNW,298,19.0,-999.0,97,-99.99,,,-99.99,,2013-05-19 14:52:00,
2013-05-19 09:01:00,56.0,54.0,29.66,WNW,299,22.0,-999.0,93,-99.99,,,-99.99,,2013-05-19 15:01:00,
2013-05-19 09:11:00,57.0,54.0,29.67,NW,304,18.0,-999.0,91,-99.99,,,-99.99,,2013-05-19 15:11:00,
2013-05-19 09:22:00,57.0,54.0,29.66,WNW,295,24.0,-999.0,90,-99.99,,,-99.99,,2013-05-19 15:22:00,
2013-05-19 09:33:00,57.0,54.0,29.66,WNW,300,18.0,-999.0,90,-99.99,,,-99.99,,2013-05-19 15:33:00,
2013-05-19 09:43:00,58.0,53.0,29.67,NW,305,21.0,-999.0,86,-99.99,,,-99.99,,2013-05-19 15:43:00,
2013-05-19 09:53:00,58.0,53.0,29.66,WNW,295,22.0,-999.0,84,-99.99,,,-99.99,,2013-05-19 15:53:00,
2013-05-19 10:03:00,58.0,53.0,29.65,NW,305,19.0,-999.0,84,-99.99,,,-99.99,,2013-05-19 16:03:00,
2013-05-19 10:12:00,58.0,52.0,29.65,WNW,301,20.0,-999.0,80,-99.99,,,-99.99,,2013-05-19 16:12:00,
2013-05-19 10:23:00,59.0,53.0,29.66,WNW,301,20.0,-999.0,80,-99.99,,,-99.99,,2013-05-19 16:23:00,
2013-05-19 10:32:00,60.0,54.0,29.66,WNW,299,19.0,-999.0,81,-99.99,,,-99.99,,2013-05-19 16:32:00,
2013-05-19 10:42:00,59.0,53.0,29.67,NW,305,18.0,-999.0,80,-99.99,,,-99.99,,2013-05-19 16:42:00,
2013-05-19 10:52:00,60.0,51.0,29.66,NW,305,19.0,-999.0,74,-99.99,,,-99.99,,2013-05-19 16:52:00,
2013-05-19 11:02:00,60.0,51.0,29.67,WNW,297,8.0,-999.0,74,-99.99,,,-99.99,,2013-05-19 17:02:00,
2013-05-19 11:12:00,60.0,52.0,29.65,WNW,294,17.0,-999.0,76,-99.99,,,-99.99,,2013-05-19 17:12:00,
2013-05-19 11:22:00,60.0,51.0,29.66,WNW,286,16.0,-999.0,74,-99.99,,,-99.99,,2013-05-19 17:22:00,
2013-05-19 11:32:00,61.0,52.0,29.66,WNW,289,18.0,-999.0,73,-99.99,,,-99.99,,2013-05-19 17:32:00,
2013-05-19 11:42:00,60.0,52.0,29.67,NW,304,18.0,-999.0,73,-99.99,,,-99.99,,2013-05-19 17:42:00,
2013-05-19 11:52:00,61.0,51.0,29.65,WNW,290,19.0,-999.0,69,-99.99,,,-99.99,,2013-05-19 17:52:00,
2013-05-19 12:02:00,61.0,52.0,29.65,NW,310,16.0,-999.0,73,-99.99,,,-99.99,,2013-05-19 18:02:00,
2013-05-19 12:12:00,61.0,52.0,29.65,WNW,298,15.0,-999.0,71,-99.99,,,-99.99,,2013-05-19 18:12:00,
2013-05-19 12:22:00,62.0,51.0,29.65,WNW,288,13.0,-999.0,67,-99.99,,,-99.99,,2013-05-19 18:22:00,
2013-05-19 12:32:00,63.0,53.0,29.63,West,280,14.0,-999.0,70,-99.99,,,-99.99,,2013-05-19 18:32:00,
2013-05-19 12:42:00,63.0,52.0,29.63,NW,323,12.0,-999.0,66,-99.99,,,-99.99,,2013-05-19 18:42:00,
2013-05-19 12:52:00,62.0,52.0,29.62,NW,311,18.0,-999.0,70,-99.99,,,-99.99,,2013-05-19 18:52:00,
2013-05-19 13:01:00,62.0,52.0,29.62,NW,311,18.0,-999.0,70,-99.99,,,-99.99,,2013-05-19 19:01:00,
2013-05-19 13:11:00,63.0,51.0,29.63,NW,314,12.0,-999.0,65,-99.99,,,-99.99,,2013-05-19 19:11:00,
2013-05-19 13:22:00,63.0,49.0,29.62,WNW,300,10.0,-999.0,59,-99.99,,,-99.99,,2013-05-19 19:22:00,
2013-05-19 13:32:00,63.0,51.0,29.63,WNW,287,14.0,-999.0,66,-99.99,,,-99.99,,2013-05-19 19:32:00,
2013-05-19 13:42:00,63.0,51.0,29.63,WNW,287,14.0,-999.0,66,-99.99,,,-99.99,,2013-05-19 19:42:00,
2013-05-19 13:52:00,62.0,51.0,29.63,NW,306,18.0,-999.0,66,-99.99,,,-99.99,,2013-05-19 19:52:00,
2013-05-19 14:02:00,60.0,51.0,29.63,NNW,338,20.0,-999.0,74,-99.99,,,-99.99,,2013-05-19 20:02:00,
2013-05-19 14:11:00,58.0,54.0,29.63,NW,326,20.0,-999.0,85,-99.99,,,-99.99,,2013-05-19 20:11:00,
2013-05-19 14:21:00,58.0,53.0,29.63,NNW,338,20.0,-999.0,82,-99.99,,,-99.99,,2013-05-19 20:21:00,
2013-05-19 14:32:00,58.0,51.0,29.62,NNW,336,24.0,-999.0,77,-99.99,,,-99.99,,2013-05-19 20:32:00,
2013-05-19 14:42:00,59.0,53.0,29.63,North,-999,18.0,-999.0,81,-99.99,,,-99.99,,2013-05-19 20:42:00,
2013-05-19 14:52:00,60.0,53.0,29.63,NNW,333,19.0,-999.0,78,-99.99,,,-99.99,,2013-05-19 20:52:00,
2013-05-19 15:02:00,61.0,54.0,29.63,North,-999,23.0,-999.0,78,-99.99,,,-99.99,,2013-05-19 21:02:00,
2013-05-19 15:11:00,61.0,55.0,29.63,NNW,333,15.0,-999.0,80,-99.99,,,-99.99,,2013-05-19 21:11:00,
2013-05-19 15:22:00,61.0,54.0,29.62,NW,319,22.0,-999.0,79,-99.99,,,-99.99,,2013-05-19 21:22:00,
2013-05-19 15:32:00,61.0,54.0,29.62,NNW,341,18.0,-999.0,78,-99.99,,,-99.99,,2013-05-19 21:32:00,
2013-05-19 15:43:00,61.0,52.0,29.62,NNW,341,19.0,-999.0,72,-99.99,,,-99.99,,2013-05-19 21:43:00,
2013-05-19 15:53:00,62.0,52.0,29.63,NNW,344,17.0,-999.0,71,-99.99,,,-99.99,,2013-05-19 21:53:00,
2013-05-19 16:03:00,61.0,52.0,29.62,North,-999,21.0,-999.0,72,-99.99,,,-99.99,,2013-05-19 22:03:00,
2013-05-19 16:12:00,61.0,51.0,29.62,NNW,344,23.0,-999.0,70,-99.99,,,-99.99,,2013-05-19 22:12:00,
2013-05-19 16:23:00,61.0,52.0,29.62,NNW,342,26.0,-999.0,71,-99.99,,,-99.99,,2013-05-19 22:23:00,
2013-05-19 16:33:00,61.0,52.0,29.62,NNW,337,22.0,-999.0,72,-99.99,,,-99.99,,2013-05-19 22:33:00,
2013-05-19 16:42:00,62.0,51.0,29.63,NNW,339,22.0,-999.0,68,-99.99,,,-99.99,,2013-05-19 22:42:00,
2013-05-19 16:52:00,61.0,52.0,29.61,North,-999,25.0,-999.0,72,-99.99,,,-99.99,,2013-05-19 22:52:00,
2013-05-19 17:02:00,60.0,51.0,29.62,NNW,336,25.0,-999.0,73,-99.99,,,-99.99,,2013-05-19 23:02:00,
2013-05-19 17:12:00,59.0,50.0,29.63,NW,322,26.0,-999.0,73,-99.99,,,-99.99,,2013-05-19 23:12:00,
2013-05-19 17:22:00,58.0,49.0,29.63,NW,316,26.0,-999.0,73,-99.99,,,-99.99,,2013-05-19 23:22:00,
2013-05-19 17:32:00,58.0,50.0,29.63,North,-999,23.0,-999.0,74,-99.99,,,-99.99,,2013-05-19 23:32:00,
2013-05-19 17:42:00,58.0,50.0,29.63,NNW,341,23.0,-999.0,75,-99.99,,,-99.99,,2013-05-19 23:42:00,
2013-05-19 17:52:00,58.0,50.0,29.63,NNW,333,18.0,-999.0,75,-99.99,,,-99.99,,2013-05-19 23:52:00,
2013-05-19 18:02:00,58.0,50.0,29.63,NNW,341,23.0,-999.0,76,-99.99,,,-99.99,,2013-05-20 00:02:00,
2013-05-19 18:11:00,57.0,49.0,29.63,NNW,333,17.0,-999.0,75,-99.99,,,-99.99,,2013-05-20 00:11:00,
2013-05-19 18:22:00,56.0,48.0,29.63,North,-999,21.0,-999.0,73,-99.99,,,-99.99,,2013-05-20 00:22:00,
2013-05-19 18:32:00,56.0,49.0,29.62,NNW,339,18.0,-999.0,76,-99.99,,,-99.99,,2013-05-20 00:32:00,
2013-05-19 18:42:00,56.0,48.0,29.63,NNW,332,17.0,-999.0,76,-99.99,,,-99.99,,2013-05-20 00:42:00,
2013-05-19 18:52:00,56.0,47.0,29.64,NW,306,19.0,-999.0,73,-99.99,,,-99.99,,2013-05-20 00:52:00,
2013-05-19 19:01:00,56.0,47.0,29.64,NW,315,21.0,-999.0,72,-99.99,,,-99.99,,2013-05-20 01:01:00,
2013-05-19 19:11:00,56.0,46.0,29.63,NNW,333,20.0,-999.0,69,-99.99,,,-99.99,,2013-05-20 01:11:00,
2013-05-19 19:21:00,56.0,47.0,29.65,NNW,329,23.0,-999.0,73,-99.99,,,-99.99,,2013-05-20 01:21:00,
2013-05-19 19:31:00,56.0,48.0,29.63,NW,324,18.0,-999.0,74,-99.99,,,-99.99,,2013-05-20 01:31:00,
2013-05-19 19:42:00,55.0,47.0,29.63,NNW,338,23.0,-999.0,74,-99.99,,,-99.99,,2013-05-20 01:42:00,
2013-05-19 19:52:00,54.0,46.0,29.66,NW,314,21.0,-999.0,75,-99.99,,,-99.99,,2013-05-20 01:52:00,
2013-05-19 20:02:00,54.0,46.0,29.66,NW,314,21.0,-999.0,75,-99.99,,,-99.99,,2013-05-20 02:02:00,
2013-05-19 20:11:00,54.0,47.0,29.64,NW,323,19.0,-999.0,76,-99.99,,,-99.99,,2013-05-20 02:11:00,
2013-05-19 20:21:00,54.0,47.0,29.67,NW,307,19.0,-999.0,76,-99.99,,,-99.99,,2013-05-20 02:21:00,
2013-05-19 20:31:00,54.0,47.0,29.64,NW,309,16.0,-999.0,77,-99.99,,,-99.99,,2013-05-20 02:31:00,
2013-05-19 20:42:00,54.0,47.0,29.65,NW,318,13.0,-999.0,79,-99.99,,,-99.99,,2013-05-20 02:42:00,
2013-05-19 20:51:00,53.0,47.0,29.64,NW,316,15.0,-999.0,80,-99.99,,,-99.99,,2013-05-20 02:51:00,
2013-05-19 21:01:00,53.0,47.0,29.65,NW,308,22.0,-999.0,79,-99.99,,,-99.99,,2013-05-20 03:01:00,
2013-05-19 21:11:00,53.0,47.0,29.67,NW,308,16.0,-999.0,81,-99.99,,,-99.99,,2013-05-20 03:11:00,
2013-05-19 21:21:00,53.0,47.0,29.66,NW,307,14.0,-999.0,80,-99.99,,,-99.99,,2013-05-20 03:21:00,
2013-05-19 21:33:00,53.0,47.0,29.67,WNW,300,14.0,-999.0,81,-99.99,,,-99.99,,2013-05-20 03:33:00,
2013-05-19 21:43:00,52.0,47.0,29.65,WNW,296,14.0,-999.0,83,-99.99,,,-99.99,,2013-05-20 03:43:00,
2013-05-19 21:52:00,52.0,46.0,29.65,WNW,301,21.0,-999.0,80,-99.99,,,-99.99,,2013-05-20 03:52:00,
2013-05-19 22:03:00,52.0,47.0,29.64,WNW,293,20.0,-999.0,82,-99.99,,,-99.99,,2013-05-20 04:03:00,
2013-05-19 22:13:00,52.0,47.0,29.65,WNW,291,17.0,-999.0,82,-99.99,,,-99.99,,2013-05-20 04:13:00,
2013-05-19 22:23:00,52.0,47.0,29.64,West,281,22.0,-999.0,81,-99.99,,,-99.99,,2013-05-20 04:23:00,
2013-05-19 22:33:00,52.0,46.0,29.64,WNW,299,26.0,-999.0,80,-99.99,,,-99.99,,2013-05-20 04:33:00,
2013-05-19 22:42:00,52.0,47.0,29.63,WNW,293,22.0,-999.0,83,-99.99,,,-99.99,,2013-05-20 04:42:00,
2013-05-19 22:52:00,51.0,46.0,29.61,WNW,285,19.0,-999.0,83,-99.99,,,-99.99,,2013-05-20 04:52:00,
2013-05-19 23:02:00,51.0,46.0,29.63,WNW,298,29.0,-999.0,82,-99.99,,,-99.99,,2013-05-20 05:02:00,
2013-05-19 23:12:00,51.0,45.0,29.62,WNW,292,25.0,-999.0,81,-99.99,,,-99.99,,2013-05-20 05:12:00,
2013-05-19 23:22:00,51.0,45.0,29.64,WNW,295,28.0,-999.0,81,-99.99,,,-99.99,,2013-05-20 05:22:00,
2013-05-19 23:32:00,51.0,46.0,29.63,WNW,292,23.0,-999.0,82,-99.99,,,-99.99,,2013-05-20 05:32:00,
2013-05-19 23:42:00,51.0,46.0,29.64,WNW,289,23.0,-999.0,84,-99.99,,,-99.99,,2013-05-20 05:42:00,
2013-05-19 23:51:00,51.0,46.0,29.62,WNW,290,21.0,-999.0,83,-99.99,,,-99.99,,2013-05-20 05:51:00,